Kincheloe, MI

11:58 AM EST on December 04, 2016 (GMT -0500)
Chippewa County International

Weather History for KCIU - January, 2014

Change the Weather History Date:

Friday, January 24, 2014

  Actual Average Record
Temperature  
Mean Temperature 5 °F -  
Max Temperature 17 °F 26 °F 44 °F (1989)
Min Temperature -7 °F 8 °F -18 °F (2004)
Degree Days  
Heating Degree Days 60    
Moisture  
Dew Point 9 °F    
Average Humidity 93    
Maximum Humidity 100    
Minimum Humidity 79    
Precipitation  
Precipitation 0.00 in - - ()
Sea Level Pressure  
Sea Level Pressure 29.62 in    
Wind  
Wind Speed 9 mph (SW)    
Max Wind Speed 20 mph    
Max Gust Speed 31 mph    
Visibility 4 miles    
Events      
Averages and records for this station are not official NWS values.
T = Trace of Precipitation, MM = Missing Value Source: NWS Daily Summary

Daily Weather History Graph

Daily Weather History Graph

Search for Another Location

Airport or City:

Trip Planner

Search our weather history database for the weather conditions in past years. The results will help you decide how hot, cold, wet, or windy it might be!

Date:

Astronomy

Jan. 24, 2014 Rise Set
Actual Time 8:09 AM EST 5:30 PM EST
Civil Twilight 7:36 AM EST 6:03 PM EST
Nautical Twilight 7:00 AM EST 6:40 PM EST
Astronomical Twilight 6:24 AM EST 7:15 PM EST
Moon 1:31 AM EST (1/24) 11:52 AM EST (1/24)
Length of Visible Light 10h 27m
Length of Day
9h 21m
Last Quarter, 45% of the Moon is Illuminated
Jan 24
Last Quarter
Jan 30
New
Feb 6
First Quarter
Feb 14
Full
Feb 22
Last Quarter

Hourly Weather History & Observations

Time (EST) Temp. Windchill Dew Point Humidity Pressure Visibility Wind Dir Wind Speed Gust Speed Precip Events Conditions
12:15 AM -7.6 °F -16.5 °F -9.4 °F 92% 30.23 in 10.0 mi SSW 3.5 mph - N/A   Clear
12:35 AM -7.6 °F -18.8 °F -9.4 °F 92% 30.21 in 10.0 mi South 4.6 mph - N/A   Clear
12:55 AM -7.6 °F - -9.4 °F 92% 30.19 in 10.0 mi Calm Calm - N/A   Clear
1:15 AM -7.6 °F -22.1 °F -11.2 °F 84% 30.18 in 10.0 mi South 6.9 mph - N/A   Partly Cloudy
1:35 AM -7.6 °F -23.4 °F -9.4 °F 92% 30.16 in 10.0 mi SSE 8.1 mph - N/A   Mostly Cloudy
1:55 AM -5.8 °F -19.9 °F -7.6 °F 92% 30.15 in 10.0 mi South 6.9 mph - N/A   Scattered Clouds
2:15 AM -5.8 °F -19.9 °F -7.6 °F 92% 30.13 in 10.0 mi SSE 6.9 mph - N/A   Mostly Cloudy
2:35 AM -4.0 °F -19.0 °F -5.8 °F 92% 30.12 in 10.0 mi SSE 8.1 mph - N/A   Overcast
2:55 AM -0.4 °F -14.7 °F -2.2 °F 92% 30.11 in 10.0 mi South 8.1 mph - N/A   Overcast
3:15 AM -0.4 °F -13.4 °F -2.2 °F 92% 30.10 in 10.0 mi SSE 6.9 mph - N/A   Overcast
3:35 AM -0.4 °F -13.4 °F -0.4 °F 100% 30.09 in 10.0 mi South 6.9 mph - N/A   Overcast
3:55 AM 1.4 °F -11.3 °F -0.4 °F 92% 30.07 in 10.0 mi South 6.9 mph - N/A   Overcast
4:15 AM -0.4 °F -12.0 °F -0.4 °F 100% 30.04 in 10.0 mi South 5.8 mph - N/A   Overcast
4:35 AM -0.4 °F -10.4 °F -0.4 °F 100% 30.02 in 10.0 mi South 4.6 mph - N/A   Overcast
4:55 AM 1.4 °F -9.9 °F -0.4 °F 92% 30.00 in 10.0 mi South 5.8 mph - N/A   Overcast
5:15 AM 1.4 °F -11.3 °F 1.4 °F 100% 29.97 in 10.0 mi South 6.9 mph - N/A   Overcast
5:35 AM 3.2 °F -6.2 °F 1.4 °F 92% 29.96 in 10.0 mi South 4.6 mph - N/A   Overcast
5:55 AM 5.0 °F -8.1 °F 3.2 °F 92% 29.93 in 10.0 mi SSW 8.1 mph - N/A   Overcast
6:15 AM 6.8 °F -4.8 °F 5.0 °F 92% 29.91 in 10.0 mi SSW 6.9 mph - N/A   Overcast
6:35 AM 8.6 °F -6.3 °F 6.8 °F 92% 29.89 in 9.0 mi SW 11.5 mph 20.7 mph N/A   Overcast
6:55 AM 8.6 °F -7.7 °F 8.6 °F 100% 29.87 in 3.0 mi SW 13.8 mph 19.6 mph N/A   Overcast
7:15 AM 10.4 °F -3.3 °F 8.6 °F 92% 29.86 in 3.0 mi SW 10.4 mph 18.4 mph N/A   Overcast
7:35 AM 10.4 °F -4.1 °F 8.6 °F 92% 29.84 in 3.0 mi SW 11.5 mph 18.4 mph N/A   Overcast
7:55 AM 10.4 °F -3.3 °F 8.6 °F 92% 29.81 in 5.0 mi SSW 10.4 mph 18.4 mph N/A   Overcast
8:15 AM 10.4 °F -6.0 °F 10.4 °F 100% 29.78 in 4.0 mi SSW 15.0 mph 21.9 mph N/A   Overcast
8:35 AM 12.2 °F -0.2 °F 10.4 °F 92% 29.76 in 3.0 mi SSW 9.2 mph 17.3 mph N/A   Overcast
8:55 AM 12.2 °F -3.7 °F 10.4 °F 92% 29.72 in 0.8 mi SSW 15.0 mph 25.3 mph N/A   Overcast
9:15 AM 14.0 °F -2.0 °F 12.2 °F 93% 29.70 in 0.8 mi SSW 16.1 mph 26.5 mph N/A   Overcast
9:35 AM 14.0 °F -0.2 °F 12.2 °F 93% 29.67 in 0.5 mi South 12.7 mph 25.3 mph N/A   Overcast
9:55 AM 14.0 °F 1.2 °F 12.2 °F 93% 29.65 in 0.2 mi South 10.4 mph 21.9 mph N/A   Overcast
10:15 AM 14.0 °F 0.5 °F 12.2 °F 93% 29.63 in 0.2 mi South 11.5 mph 19.6 mph N/A   Overcast
10:35 AM 14.0 °F 0.5 °F 12.2 °F 93% 29.61 in 0.2 mi South 11.5 mph 16.1 mph N/A   Overcast
10:55 AM 14.0 °F 1.2 °F 12.2 °F 93% 29.59 in 0.2 mi South 10.4 mph 23.0 mph N/A   Overcast
11:15 AM 15.8 °F 3.4 °F 14.0 °F 93% 29.58 in 0.2 mi SSW 10.4 mph 16.1 mph N/A   Overcast
11:35 AM 17.6 °F 2.2 °F 15.8 °F 93% 29.57 in 0.2 mi WSW 17.3 mph 28.8 mph N/A   Overcast
11:55 AM 17.6 °F 1.7 °F 15.8 °F 93% 29.55 in 0.8 mi WSW 18.4 mph 27.6 mph N/A   Overcast
12:15 PM 17.6 °F 2.2 °F 12.2 °F 79% 29.53 in 1.2 mi WSW 17.3 mph 25.3 mph N/A   Overcast
12:35 PM 15.8 °F 1.4 °F 12.2 °F 86% 29.52 in 1.2 mi WSW 13.8 mph 27.6 mph N/A   Overcast
12:55 PM 15.8 °F -1.1 °F 12.2 °F 86% 29.49 in 1.0 mi WSW 19.6 mph 31.1 mph N/A   Overcast
1:15 PM 15.8 °F -0.6 °F 12.2 °F 86% 29.48 in 1.0 mi WSW 18.4 mph 27.6 mph N/A   Overcast
1:35 PM 15.8 °F 0.9 °F 12.2 °F 86% 29.46 in 1.5 mi WSW 15.0 mph 25.3 mph N/A   Overcast
1:55 PM 15.8 °F 1.4 °F 12.2 °F 86% 29.45 in 1.5 mi WSW 13.8 mph 27.6 mph N/A   Overcast
2:15 PM 15.8 °F -0.2 °F 12.2 °F 86% 29.43 in 1.5 mi WSW 17.3 mph 24.2 mph N/A   Overcast
2:35 PM 15.8 °F 0.3 °F 12.2 °F 86% 29.42 in 1.8 mi WSW 16.1 mph 24.2 mph N/A   Overcast
2:55 PM 15.8 °F 0.9 °F 12.2 °F 86% 29.41 in 2.0 mi WSW 15.0 mph 21.9 mph N/A   Overcast
3:15 PM 15.8 °F 2.1 °F 12.2 °F 86% 29.40 in 1.8 mi WSW 12.7 mph 23.0 mph N/A   Overcast
3:35 PM 15.8 °F 3.4 °F 12.2 °F 86% 29.39 in 1.8 mi WSW 10.4 mph 19.6 mph N/A   Overcast
3:55 PM 15.8 °F 3.4 °F 12.2 °F 86% 29.38 in 2.0 mi WSW 10.4 mph 16.1 mph N/A   Overcast
4:15 PM 15.8 °F 3.4 °F 12.2 °F 86% 29.38 in 2.5 mi WSW 10.4 mph 17.3 mph N/A   Overcast
4:35 PM 15.8 °F 4.2 °F 14.0 °F 93% 29.37 in 2.0 mi WSW 9.2 mph - N/A   Overcast
4:55 PM 15.8 °F 3.4 °F 14.0 °F 93% 29.36 in 1.5 mi WSW 10.4 mph - N/A   Overcast
5:15 PM 15.8 °F 3.4 °F 14.0 °F 93% 29.35 in 1.8 mi WSW 10.4 mph - N/A   Overcast
5:35 PM 15.8 °F 5.1 °F 15.8 °F 100% 29.34 in 1.0 mi SW 8.1 mph - N/A   Overcast
5:55 PM 15.8 °F 3.4 °F 15.8 °F 100% 29.33 in 2.0 mi SW 10.4 mph 17.3 mph N/A   Overcast
6:15 PM 15.8 °F 4.2 °F 15.8 °F 100% 29.32 in 1.2 mi SW 9.2 mph - N/A   Overcast
6:35 PM 17.6 °F 7.3 °F 15.8 °F 93% 29.32 in 2.0 mi WSW 8.1 mph - N/A   Overcast
6:55 PM 17.6 °F 8.2 °F 15.8 °F 93% 29.31 in 1.5 mi WSW 6.9 mph - N/A   Overcast
7:15 PM 17.6 °F 7.3 °F 17.6 °F 100% 29.30 in 1.2 mi SW 8.1 mph - N/A   Overcast
7:35 PM 17.6 °F 8.2 °F 17.6 °F 100% 29.29 in 1.5 mi SW 6.9 mph - N/A   Overcast
7:55 PM 17.6 °F 7.3 °F 17.6 °F 100% 29.29 in 1.5 mi SW 8.1 mph - N/A   Overcast
8:15 PM 17.6 °F 5.7 °F 17.6 °F 100% 29.28 in 1.2 mi WSW 10.4 mph 17.3 mph N/A   Overcast
8:35 PM 17.6 °F 5.0 °F 17.6 °F 100% 29.27 in 1.8 mi WSW 11.5 mph 17.3 mph N/A   Overcast
8:55 PM 17.6 °F 5.0 °F 15.8 °F 93% 29.25 in 1.8 mi SW 11.5 mph - N/A   Overcast
9:15 PM 17.6 °F 7.3 °F 15.8 °F 93% 29.24 in 1.5 mi SW 8.1 mph 17.3 mph N/A   Overcast
9:35 PM 17.6 °F 6.4 °F 15.8 °F 93% 29.23 in 1.8 mi SW 9.2 mph - N/A   Overcast
9:55 PM 17.6 °F 5.7 °F 17.6 °F 100% 29.22 in 1.2 mi WSW 10.4 mph - N/A   Overcast
10:15 PM 17.6 °F 5.7 °F 17.6 °F 100% 29.20 in 1.8 mi WSW 10.4 mph - N/A   Overcast
10:35 PM 17.6 °F 5.7 °F 17.6 °F 100% 29.20 in 1.8 mi WSW 10.4 mph - N/A   Overcast
10:55 PM 17.6 °F 7.3 °F 17.6 °F 100% 29.18 in 3.0 mi WSW 8.1 mph - N/A   Mostly Cloudy
11:15 PM 17.6 °F 8.2 °F 17.6 °F 100% 29.17 in 3.0 mi SW 6.9 mph - N/A   Overcast
11:35 PM 17.6 °F 9.3 °F 17.6 °F 100% 29.16 in 2.5 mi SW 5.8 mph - N/A   Overcast
11:55 PM 17.6 °F 8.2 °F 17.6 °F 100% 29.15 in 3.0 mi SW 6.9 mph - N/A   Overcast